TimeEDT,TemperatureF,Dew PointF,Humidity,Sea Level PressureIn,VisibilityMPH,Wind Direction,Wind SpeedMPH,Gust SpeedMPH,PrecipitationIn,Events,Conditions,WindDirDegrees,DateUTC
12:56 AM,78.1,75.0,90,29.94,10.0,SSW,6.9,-,N/A,,Scattered Clouds,200,2012-09-07 04:56:00
1:56 AM,78.1,75.0,90,29.93,10.0,SSW,5.8,-,N/A,,Mostly Cloudy,210,2012-09-07 05:56:00
2:56 AM,78.1,75.0,90,29.91,10.0,SW,6.9,-,N/A,,Scattered Clouds,220,2012-09-07 06:56:00
3:56 AM,78.1,75.0,90,29.91,10.0,WSW,4.6,-,N/A,,Partly Cloudy,240,2012-09-07 07:56:00
4:56 AM,77.0,73.9,90,29.90,10.0,WSW,8.1,-,N/A,,Scattered Clouds,250,2012-09-07 08:56:00
5:56 AM,75.9,73.0,91,29.91,10.0,West,3.5,-,N/A,,Scattered Clouds,260,2012-09-07 09:56:00
6:56 AM,75.9,73.0,91,29.93,10.0,WNW,4.6,-,N/A,,Scattered Clouds,290,2012-09-07 10:56:00
7:56 AM,77.0,73.0,88,29.94,10.0,Calm,Calm,-,N/A,,Mostly Cloudy,0,2012-09-07 11:56:00
8:56 AM,78.1,73.0,84,29.95,10.0,West,3.5,-,0.00,,Mostly Cloudy,270,2012-09-07 12:56:00
9:56 AM,79.0,73.0,82,29.96,10.0,WNW,5.8,-,N/A,,Scattered Clouds,300,2012-09-07 13:56:00
10:56 AM,84.0,73.0,69,29.97,10.0,Calm,Calm,-,N/A,,Scattered Clouds,0,2012-09-07 14:56:00
11:56 AM,84.9,73.0,67,29.95,10.0,NNW,6.9,-,N/A,,Scattered Clouds,330,2012-09-07 15:56:00
12:56 PM,88.0,73.0,61,29.93,10.0,Variable,4.6,-,N/A,,Scattered Clouds,0,2012-09-07 16:56:00
1:56 PM,82.9,73.9,74,29.91,10.0,West,5.8,17.3,0.01,Rain,Rain,280,2012-09-07 17:56:00
2:56 PM,88.0,73.0,61,29.88,10.0,WSW,3.5,-,0.00,,Mostly Cloudy,250,2012-09-07 18:56:00
3:23 PM,89.6,71.6,55,29.89,10.0,Calm,Calm,-,N/A,Thunderstorm,Thunderstorm,0,2012-09-07 19:23:00
3:48 PM,87.8,73.4,62,29.89,10.0,SSE,12.7,20.7,N/A,,Mostly Cloudy,150,2012-09-07 19:48:00
3:56 PM,87.1,73.9,65,29.88,10.0,SSE,13.8,-,N/A,,Mostly Cloudy,150,2012-09-07 19:56:00
4:06 PM,87.8,73.4,62,29.87,10.0,SE,8.1,-,N/A,Thunderstorm,Thunderstorm,140,2012-09-07 20:06:00
4:30 PM,78.8,69.8,74,29.90,3.0,SSE,9.2,25.3,0.41,Rain-Thunderstorm,Heavy Thunderstorms and Rain,160,2012-09-07 20:30:00
4:35 PM,78.8,69.8,74,29.91,2.0,SSW,13.8,-,0.56,Rain-Thunderstorm,Heavy Thunderstorms and Rain,210,2012-09-07 20:35:00
4:52 PM,73.4,71.6,94,29.91,1.2,SSW,23.0,36.8,0.89,Rain-Thunderstorm,Thunderstorms and Rain,210,2012-09-07 20:52:00
4:56 PM,73.9,71.1,91,29.90,1.2,SW,12.7,27.6,0.89,Rain-Thunderstorm,Light Thunderstorms and Rain,230,2012-09-07 20:56:00
4:58 PM,73.4,71.6,94,29.90,5.0,SW,9.2,27.6,0.00,Rain-Thunderstorm,Light Thunderstorms and Rain,230,2012-09-07 20:58:00
5:40 PM,75.2,73.4,94,29.89,10.0,South,5.8,-,N/A,,Mostly Cloudy,190,2012-09-07 21:40:00
5:56 PM,75.9,73.0,91,29.89,10.0,South,6.9,-,0.04,,Mostly Cloudy,170,2012-09-07 21:56:00
6:56 PM,78.1,70.0,76,29.88,10.0,SSW,3.5,-,N/A,,Mostly Cloudy,210,2012-09-07 22:56:00
7:56 PM,75.9,71.1,85,29.89,10.0,SSE,3.5,-,N/A,,Scattered Clouds,160,2012-09-07 23:56:00
8:56 PM,75.9,73.0,91,29.90,10.0,South,3.5,-,N/A,,Mostly Cloudy,190,2012-09-08 00:56:00
9:56 PM,75.9,73.0,91,29.90,9.0,Calm,Calm,-,N/A,,Scattered Clouds,0,2012-09-08 01:56:00
10:56 PM,75.9,73.9,94,29.88,8.0,South,5.8,-,N/A,,Scattered Clouds,190,2012-09-08 02:56:00
11:56 PM,75.9,73.9,94,29.87,9.0,SSW,5.8,-,N/A,,Clear,200,2012-09-08 03:56:00